Location: Newark
(25.4800°N, 85.7200°E)
Time: 02:10:06
(UTC+00:00)

Explorer 11/Cluster Stage 4 - Pass Details

Date: 25 August 2019
Orbit: 467 x 1259 km, 28.8° (Epoch: 17 October)

Event Time Altitude Azimuth Distance (km) Brightness Sun altitude
Rises 11:24:05 0° 267° (W) 3,892 11.9 17.0°
Reaches altitude 10° 11:29:00 10° 240° (WSW) 2,738 10.5 15.9°
Maximum altitude 11:31:28 12° 218° (SW) 2,466 9.7 15.3°
Drops below altitude 10° 11:33:47 10° 196° (SSW) 2,514 9.4 14.8°
Sets 11:37:51 0° 166° (SSE) 3,237 9.5 13.9°
